Time,TemperatureF,DewpointF,PressureIn,WindDirection,WindDirectionDegrees,WindSpeedMPH,WindSpeedGustMPH,Humidity,HourlyPrecipIn,Conditions,Clouds,dailyrainin,SoftwareType,DateUTC
2013-01-07 00:07:00,26.0,23.0,29.85,West,281,0.0,-999.0,89,-99.99,,,0.00,weatherlink.com 1.10,2013-01-07 05:07:00,
2013-01-07 00:22:00,26.0,23.0,29.86,West,281,2.0,-999.0,89,-99.99,,,0.00,weatherlink.com 1.10,2013-01-07 05:22:00,
2013-01-07 00:37:00,26.1,23.0,29.85,West,281,0.0,-999.0,89,-99.99,,,0.00,weatherlink.com 1.10,2013-01-07 05:37:00,
2013-01-07 00:52:00,26.3,23.0,29.86,West,281,4.0,-999.0,88,-99.99,,,0.00,weatherlink.com 1.10,2013-01-07 05:52:00,
2013-01-07 01:07:00,26.2,23.0,29.87,West,281,0.0,-999.0,88,-99.99,,,0.00,weatherlink.com 1.10,2013-01-07 06:07:00,
2013-01-07 01:22:00,25.8,23.0,29.88,West,281,0.0,-999.0,88,-99.99,,,0.00,weatherlink.com 1.10,2013-01-07 06:22:00,
2013-01-07 01:37:00,25.4,23.0,29.88,West,281,0.0,-999.0,89,-99.99,,,0.00,weatherlink.com 1.10,2013-01-07 06:37:00,
2013-01-07 01:52:00,25.7,23.0,29.89,West,281,1.0,-999.0,90,-99.99,,,0.00,weatherlink.com 1.10,2013-01-07 06:52:00,
2013-01-07 02:07:00,26.2,24.0,29.90,WNW,282,2.0,-999.0,91,-99.99,,,0.00,weatherlink.com 1.10,2013-01-07 07:07:00,
2013-01-07 02:22:00,26.3,24.0,29.90,WNW,295,2.0,-999.0,91,-99.99,,,0.00,weatherlink.com 1.10,2013-01-07 07:22:00,
2013-01-07 02:37:00,26.1,24.0,29.91,NW,313,5.0,-999.0,91,-99.99,,,0.00,weatherlink.com 1.10,2013-01-07 07:37:00,
2013-01-07 02:52:00,25.9,24.0,29.91,NNE,30,2.0,-999.0,91,-99.99,,,0.00,weatherlink.com 1.10,2013-01-07 07:52:00,
2013-01-07 03:07:00,25.4,23.0,29.91,NNE,30,2.0,-999.0,91,-99.99,,,0.00,weatherlink.com 1.10,2013-01-07 08:07:00,
2013-01-07 03:22:00,25.0,23.0,29.93,NNE,30,0.0,-999.0,91,-99.99,,,0.00,weatherlink.com 1.10,2013-01-07 08:22:00,
2013-01-07 03:37:00,25.2,23.0,29.93,NNE,30,4.0,-999.0,92,-99.99,,,0.00,weatherlink.com 1.10,2013-01-07 08:37:00,
2013-01-07 03:52:00,25.2,23.0,29.94,NNE,30,0.0,-999.0,91,-99.99,,,0.00,weatherlink.com 1.10,2013-01-07 08:52:00,
2013-01-07 04:07:00,25.2,23.0,29.95,NNE,30,2.0,-999.0,91,-99.99,,,0.00,weatherlink.com 1.10,2013-01-07 09:07:00,
2013-01-07 04:22:00,25.2,23.0,29.95,NNE,30,2.0,-999.0,91,-99.99,,,0.00,weatherlink.com 1.10,2013-01-07 09:22:00,
2013-01-07 04:37:00,25.2,23.0,29.96,NNE,20,4.0,-999.0,90,-99.99,,,0.00,weatherlink.com 1.10,2013-01-07 09:37:00,
2013-01-07 04:52:00,25.1,22.0,29.96,NNE,32,4.0,-999.0,89,-99.99,,,0.00,weatherlink.com 1.10,2013-01-07 09:52:00,
2013-01-07 05:07:00,24.6,22.0,29.97,NNE,31,7.0,-999.0,89,-99.99,,,0.00,weatherlink.com 1.10,2013-01-07 10:07:00,
2013-01-07 05:22:00,23.6,21.0,29.99,NNE,25,6.0,-999.0,88,-99.99,,,0.00,weatherlink.com 1.10,2013-01-07 10:22:00,
2013-01-07 05:37:00,22.8,20.0,30.00,NE,36,4.0,-999.0,88,-99.99,,,0.00,weatherlink.com 1.10,2013-01-07 10:37:00,
2013-01-07 05:52:00,21.9,19.0,30.01,NNE,21,6.0,-999.0,87,-99.99,,,0.00,weatherlink.com 1.10,2013-01-07 10:52:00,
2013-01-07 06:07:00,21.1,18.0,30.03,NNE,20,10.0,-999.0,86,-99.99,,,0.00,weatherlink.com 1.10,2013-01-07 11:07:00,
2013-01-07 06:22:00,20.8,17.0,30.03,NE,42,5.0,-999.0,86,-99.99,,,0.00,weatherlink.com 1.10,2013-01-07 11:22:00,
2013-01-07 06:37:00,20.5,17.0,30.05,North,9,8.0,-999.0,86,-99.99,,,0.00,weatherlink.com 1.10,2013-01-07 11:37:00,
2013-01-07 06:52:00,19.8,16.0,30.06,NNE,25,3.0,-999.0,85,-99.99,,,0.00,weatherlink.com 1.10,2013-01-07 11:52:00,
2013-01-07 07:07:00,19.4,16.0,30.07,NNE,18,6.0,-999.0,85,-99.99,,,0.00,weatherlink.com 1.10,2013-01-07 12:07:00,
2013-01-07 07:22:00,18.8,15.0,30.09,NNE,32,2.0,-999.0,84,-99.99,,,0.00,weatherlink.com 1.10,2013-01-07 12:22:00,
2013-01-07 07:37:00,18.1,14.0,30.10,NNE,29,5.0,-999.0,84,-99.99,,,0.00,weatherlink.com 1.10,2013-01-07 12:37:00,
2013-01-07 07:52:00,17.7,14.0,30.10,NNE,26,4.0,-999.0,84,-99.99,,,0.00,weatherlink.com 1.10,2013-01-07 12:52:00,
2013-01-07 08:07:00,17.6,14.0,30.12,NNE,22,9.0,-999.0,84,-99.99,,,0.00,weatherlink.com 1.10,2013-01-07 13:07:00,
2013-01-07 08:22:00,17.7,13.0,30.14,NE,35,3.0,-999.0,83,-99.99,,,0.00,weatherlink.com 1.10,2013-01-07 13:22:00,
2013-01-07 08:37:00,18.0,13.0,30.14,ENE,61,4.0,-999.0,82,-99.99,,,0.00,weatherlink.com 1.10,2013-01-07 13:37:00,
2013-01-07 08:52:00,18.4,14.0,30.16,NNE,26,5.0,-999.0,81,-99.99,,,0.00,weatherlink.com 1.10,2013-01-07 13:52:00,
2013-01-07 09:07:00,18.7,14.0,30.17,NNE,30,7.0,-999.0,80,-99.99,,,0.00,weatherlink.com 1.10,2013-01-07 14:07:00,
2013-01-07 09:22:00,18.4,13.0,30.19,North,11,9.0,-999.0,80,-99.99,,,0.00,weatherlink.com 1.10,2013-01-07 14:22:00,
2013-01-07 09:37:00,19.0,14.0,30.20,NNE,12,4.0,-999.0,80,-99.99,,,0.00,weatherlink.com 1.10,2013-01-07 14:37:00,
2013-01-07 09:52:00,19.0,12.0,30.20,NNE,26,6.0,-999.0,75,-99.99,,,0.00,weatherlink.com 1.10,2013-01-07 14:52:00,
2013-01-07 10:07:00,19.2,13.0,30.21,North,11,4.0,-999.0,75,-99.99,,,0.00,weatherlink.com 1.10,2013-01-07 15:07:00,
2013-01-07 10:22:00,19.3,13.0,30.21,NNE,12,7.0,-999.0,75,-99.99,,,0.00,weatherlink.com 1.10,2013-01-07 15:22:00,
2013-01-07 10:37:00,19.2,12.0,30.21,NNE,30,5.0,-999.0,74,-99.99,,,0.00,weatherlink.com 1.10,2013-01-07 15:37:00,
2013-01-07 10:52:00,19.1,12.0,30.21,NNE,22,6.0,-999.0,74,-99.99,,,0.00,weatherlink.com 1.10,2013-01-07 15:52:00,
2013-01-07 11:07:00,19.4,12.0,30.21,NNE,30,4.0,-999.0,74,-99.99,,,0.00,weatherlink.com 1.10,2013-01-07 16:07:00,
2013-01-07 11:22:00,19.6,13.0,30.21,NNE,14,5.0,-999.0,74,-99.99,,,0.00,weatherlink.com 1.10,2013-01-07 16:22:00,
2013-01-07 11:37:00,20.3,13.0,30.21,North,9,4.0,-999.0,73,-99.99,,,0.00,weatherlink.com 1.10,2013-01-07 16:37:00,
2013-01-07 11:52:00,21.1,13.0,30.22,North,355,0.0,-999.0,71,-99.99,,,0.00,weatherlink.com 1.10,2013-01-07 16:52:00,
2013-01-07 12:07:00,21.4,13.0,30.21,North,5,7.0,-999.0,71,-99.99,,,0.00,weatherlink.com 1.10,2013-01-07 17:07:00,
2013-01-07 12:22:00,21.6,14.0,30.21,NNE,26,8.0,-999.0,71,-99.99,,,0.00,weatherlink.com 1.10,2013-01-07 17:22:00,
2013-01-07 12:37:00,22.6,14.0,30.22,North,360,6.0,-999.0,70,-99.99,,,0.00,weatherlink.com 1.10,2013-01-07 17:37:00,
2013-01-07 12:52:00,23.0,14.0,30.22,NNW,346,0.0,-999.0,69,-99.99,,,0.00,weatherlink.com 1.10,2013-01-07 17:52:00,
2013-01-07 13:07:00,23.5,14.0,30.22,North,355,4.0,-999.0,68,-99.99,,,0.00,weatherlink.com 1.10,2013-01-07 18:07:00,
2013-01-07 13:22:00,24.1,15.0,30.23,North,9,5.0,-999.0,67,-99.99,,,0.00,weatherlink.com 1.10,2013-01-07 18:22:00,
2013-01-07 13:37:00,24.5,15.0,30.23,North,360,3.0,-999.0,66,-99.99,,,0.00,weatherlink.com 1.10,2013-01-07 18:37:00,
2013-01-07 13:52:00,24.8,15.0,30.24,North,355,7.0,-999.0,66,-99.99,,,0.00,weatherlink.com 1.10,2013-01-07 18:52:00,
2013-01-07 14:07:00,25.2,15.0,30.23,North,355,0.0,-999.0,65,-99.99,,,0.00,weatherlink.com 1.10,2013-01-07 19:07:00,
2013-01-07 14:22:00,26.0,15.0,30.24,North,355,2.0,-999.0,63,-99.99,,,0.00,weatherlink.com 1.10,2013-01-07 19:22:00,
2013-01-07 14:37:00,26.5,15.0,30.25,North,355,0.0,-999.0,62,-99.99,,,0.00,weatherlink.com 1.10,2013-01-07 19:37:00,
2013-01-07 14:52:00,27.0,15.0,30.25,North,355,4.0,-999.0,61,-99.99,,,0.00,weatherlink.com 1.10,2013-01-07 19:52:00,
2013-01-07 15:07:00,26.7,14.0,30.26,North,355,0.0,-999.0,60,-99.99,,,0.00,weatherlink.com 1.10,2013-01-07 20:07:00,
2013-01-07 15:22:00,27.2,14.0,30.27,North,355,0.0,-999.0,59,-99.99,,,0.00,weatherlink.com 1.10,2013-01-07 20:22:00,
2013-01-07 15:37:00,26.4,14.0,30.26,North,355,0.0,-999.0,61,-99.99,,,0.00,weatherlink.com 1.10,2013-01-07 20:37:00,
2013-01-07 15:52:00,26.5,14.0,30.28,North,355,0.0,-999.0,59,-99.99,,,0.00,weatherlink.com 1.10,2013-01-07 20:52:00,
2013-01-07 16:07:00,25.5,14.0,30.28,North,355,0.0,-999.0,62,-99.99,,,0.00,weatherlink.com 1.10,2013-01-07 21:07:00,
2013-01-07 16:22:00,23.9,14.0,30.28,North,355,0.0,-999.0,65,-99.99,,,0.00,weatherlink.com 1.10,2013-01-07 21:22:00,
2013-01-07 16:37:00,22.6,14.0,30.28,North,355,0.0,-999.0,69,-99.99,,,0.00,weatherlink.com 1.10,2013-01-07 21:37:00,
2013-01-07 16:52:00,21.5,14.0,30.29,North,355,0.0,-999.0,72,-99.99,,,0.00,weatherlink.com 1.10,2013-01-07 21:52:00,
2013-01-07 17:07:00,20.8,14.0,30.30,North,355,0.0,-999.0,75,-99.99,,,0.00,weatherlink.com 1.10,2013-01-07 22:07:00,
2013-01-07 17:22:00,19.9,14.0,30.29,North,355,2.0,-999.0,77,-99.99,,,0.00,weatherlink.com 1.10,2013-01-07 22:22:00,
2013-01-07 17:37:00,19.7,14.0,30.29,North,355,0.0,-999.0,78,-99.99,,,0.00,weatherlink.com 1.10,2013-01-07 22:37:00,
2013-01-07 17:52:00,19.4,14.0,30.31,North,355,0.0,-999.0,79,-99.99,,,0.00,weatherlink.com 1.10,2013-01-07 22:52:00,
2013-01-07 18:07:00,18.8,14.0,30.32,North,355,0.0,-999.0,81,-99.99,,,0.00,weatherlink.com 1.10,2013-01-07 23:07:00,
2013-01-07 18:22:00,18.0,13.0,30.32,North,355,0.0,-999.0,81,-99.99,,,0.00,weatherlink.com 1.10,2013-01-07 23:22:00,
2013-01-07 18:37:00,18.1,14.0,30.32,North,355,0.0,-999.0,82,-99.99,,,0.00,weatherlink.com 1.10,2013-01-07 23:37:00,
2013-01-07 18:52:00,17.9,14.0,30.32,North,355,0.0,-999.0,83,-99.99,,,0.00,weatherlink.com 1.10,2013-01-07 23:52:00,
2013-01-07 19:07:00,17.9,14.0,30.32,North,355,0.0,-999.0,83,-99.99,,,0.00,weatherlink.com 1.10,2013-01-08 00:07:00,
2013-01-07 19:22:00,17.5,14.0,30.32,North,355,0.0,-999.0,85,-99.99,,,0.00,weatherlink.com 1.10,2013-01-08 00:22:00,
2013-01-07 19:37:00,17.4,14.0,30.31,North,355,0.0,-999.0,86,-99.99,,,0.00,weatherlink.com 1.10,2013-01-08 00:37:00,
2013-01-07 19:52:00,17.5,14.0,30.30,North,355,0.0,-999.0,87,-99.99,,,0.00,weatherlink.com 1.10,2013-01-08 00:52:00,
2013-01-07 20:07:00,17.8,15.0,30.29,North,355,2.0,-999.0,88,-99.99,,,0.00,weatherlink.com 1.10,2013-01-08 01:07:00,
2013-01-07 20:22:00,18.0,15.0,30.29,North,355,0.0,-999.0,87,-99.99,,,0.00,weatherlink.com 1.10,2013-01-08 01:22:00,
2013-01-07 20:37:00,18.1,15.0,30.28,North,355,0.0,-999.0,87,-99.99,,,0.00,weatherlink.com 1.10,2013-01-08 01:37:00,
2013-01-07 20:52:00,18.4,15.0,30.28,North,355,0.0,-999.0,87,-99.99,,,0.00,weatherlink.com 1.10,2013-01-08 01:52:00,
2013-01-07 21:07:00,18.8,16.0,30.28,North,355,0.0,-999.0,87,-99.99,,,0.00,weatherlink.com 1.10,2013-01-08 02:07:00,
2013-01-07 21:22:00,19.3,16.0,30.27,North,355,0.0,-999.0,87,-99.99,,,0.00,weatherlink.com 1.10,2013-01-08 02:22:00,
2013-01-07 21:37:00,19.8,17.0,30.27,North,355,0.0,-999.0,87,-99.99,,,0.00,weatherlink.com 1.10,2013-01-08 02:37:00,
2013-01-07 21:52:00,19.2,15.0,30.27,West,262,0.0,-999.0,85,-99.99,,,0.00,weatherlink.com 1.10,2013-01-08 02:52:00,
2013-01-07 22:07:00,19.1,15.0,30.27,West,262,0.0,-999.0,84,-99.99,,,0.00,weatherlink.com 1.10,2013-01-08 03:07:00,
2013-01-07 22:22:00,18.7,15.0,30.27,West,262,0.0,-999.0,84,-99.99,,,0.00,weatherlink.com 1.10,2013-01-08 03:22:00,
2013-01-07 22:37:00,18.0,14.0,30.27,West,262,0.0,-999.0,85,-99.99,,,0.00,weatherlink.com 1.10,2013-01-08 03:37:00,
2013-01-07 22:52:00,17.7,14.0,30.27,West,262,0.0,-999.0,86,-99.99,,,0.00,weatherlink.com 1.10,2013-01-08 03:52:00,
2013-01-07 23:07:00,17.2,14.0,30.27,West,262,0.0,-999.0,87,-99.99,,,0.00,weatherlink.com 1.10,2013-01-08 04:07:00,
2013-01-07 23:22:00,16.6,14.0,30.26,West,262,0.0,-999.0,88,-99.99,,,0.00,weatherlink.com 1.10,2013-01-08 04:22:00,
2013-01-07 23:37:00,16.2,14.0,30.26,West,262,0.0,-999.0,89,-99.99,,,0.00,weatherlink.com 1.10,2013-01-08 04:37:00,
2013-01-07 23:52:00,16.2,14.0,30.26,West,262,0.0,-999.0,90,-99.99,,,0.00,weatherlink.com 1.10,2013-01-08 04:52:00,